| time (UTC) | temp F | wind direction | speed MPH | gust MPH | rain 1hr in | rain 24hr in | rain mn in | humidity % | barometer mb |
| 20260505172936 | 78 | 233 | 10.0 | 0.0 | 0.00 | 0.00 | 0.00 | 37 | 1009.9 |
| 20260505171436 | 77 | 218 | 15.0 | 0.0 | 0.00 | 0.00 | 0.00 | 38 | 1009.9 |
| 20260505165936 | 78 | 167 | 19.0 | 0.0 | 0.00 | 0.00 | 0.00 | 39 | 1010.9 |
| 20260505164436 | 76 | 242 | 10.0 | 0.0 | 0.00 | 0.00 | 0.00 | 39 | 1010.9 |
| 20260505163010 | 76 | 184 | 9.0 | 0.0 | 0.00 | 0.00 | 0.00 | 42 | 1010.9 |
| 20260505161510 | 76 | 302 | 1.0 | 0.0 | 0.00 | 0.00 | 0.00 | 47 | 1010.9 |
| 20260505152936 | 73 | 234 | 15.0 | 0.0 | 0.00 | 0.00 | 0.00 | 54 | 1010.9 |
| 20260505151454 | 73 | 195 | 4.0 | 0.0 | 0.00 | 0.00 | 0.00 | 56 | 1010.9 |
| 20260505124436 | 60 | 174 | 5.0 | 0.0 | 0.00 | 0.00 | 0.00 | 85 | 1010.8 |
| 20260505122936 | 59 | 143 | 2.0 | 0.0 | 0.00 | 0.00 | 0.00 | 87 | 1010.8 |
| 20260505121436 | 58 | 131 | 2.0 | 0.0 | 0.00 | 0.00 | 0.00 | 89 | 1010.8 |
| 20260505115953 | 55 | 20 | 0.0 | 0.0 | 0.00 | 0.00 | 0.00 | 90 | 1010.3 |
| 20260505114436 | 53 | 76 | 0.0 | 0.0 | 0.00 | 0.00 | 0.00 | 90 | 1010.3 |
| 20260505112936 | 51 | 9 | 1.0 | 0.0 | 0.00 | 0.00 | 0.00 | 90 | 1010.3 |
| 20260505111436 | 50 | 8 | 0.0 | 0.0 | 0.00 | 0.00 | 0.00 | 90 | 1010.3 |
| 20260505101436 | 50 | 8 | 0.0 | 0.0 | 0.00 | 0.00 | 0.00 | 89 | 1010.0 |
| 20260505095936 | 50 | 8 | 0.0 | 0.0 | 0.00 | 0.00 | 0.00 | 88 | 1009.7 |
| 20260505094436 | 50 | 8 | 0.0 | 0.0 | 0.00 | 0.00 | 0.00 | 88 | 1009.7 |
| 20260505092936 | 50 | 8 | 0.0 | 0.0 | 0.00 | 0.00 | 0.00 | 88 | 1009.7 |
| 20260505091436 | 50 | 8 | 0.0 | 0.0 | 0.00 | 0.00 | 0.00 | 88 | 1009.7 |
| 20260505085953 | 51 | 8 | 0.0 | 0.0 | 0.00 | 0.00 | 0.00 | 87 | 1009.3 |
| 20260505084436 | 51 | 8 | 0.0 | 0.0 | 0.00 | 0.00 | 0.00 | 86 | 1009.3 |
| 20260505083010 | 51 | 8 | 0.0 | 0.0 | 0.00 | 0.00 | 0.00 | 86 | 1009.3 |
| 20260505081436 | 51 | 8 | 0.0 | 0.0 | 0.00 | 0.00 | 0.00 | 86 | 1009.3 |
| 20260505075936 | 52 | 144 | 0.0 | 0.0 | 0.00 | 0.00 | 0.00 | 85 | 1009.2 |
| 20260505074436 | 52 | 290 | 0.0 | 0.0 | 0.00 | 0.00 | 0.00 | 83 | 1009.2 |
| 20260505072937 | 53 | 290 | 0.0 | 0.0 | 0.00 | 0.00 | 0.00 | 83 | 1009.2 |
| 20260505071436 | 54 | 290 | 0.0 | 0.0 | 0.00 | 0.00 | 0.00 | 81 | 1009.2 |
| 20260505065936 | 55 | 290 | 0.0 | 0.0 | 0.00 | 0.00 | 0.00 | 79 | 1009.4 |
| 20260505064436 | 56 | 290 | 0.0 | 0.0 | 0.00 | 0.00 | 0.00 | 77 | 1009.4 |
| 20260505062936 | 57 | 255 | 0.0 | 0.0 | 0.00 | 0.00 | 0.00 | 76 | 1009.4 |
| 20260505061436 | 58 | 242 | 5.0 | 0.0 | 0.00 | 0.00 | 0.00 | 75 | 1009.4 |
| 20260505055936 | 58 | 209 | 4.0 | 0.0 | 0.00 | 0.00 | 0.01 | 74 | 1010.0 |
| 20260505054436 | 58 | 197 | 6.0 | 0.0 | 0.00 | 0.00 | 0.01 | 74 | 1010.0 |
| 20260505052936 | 57 | 225 | 4.0 | 0.0 | 0.00 | 0.00 | 0.01 | 75 | 1010.0 |
| 20260505051436 | 55 | 231 | 2.0 | 0.0 | 0.00 | 0.00 | 0.01 | 77 | 1010.0 |
| 20260505041453 | 58 | 260 | 0.0 | 0.0 | 0.00 | 0.00 | 0.01 | 70 | 1010.2 |
| 20260505035936 | 59 | 306 | 0.0 | 0.0 | 0.00 | 0.00 | 0.01 | 68 | 1010.2 |
| 20260505034436 | 60 | 261 | 1.0 | 0.0 | 0.00 | 0.00 | 0.01 | 67 | 1010.2 |
| 20260505032936 | 60 | 237 | 3.0 | 0.0 | 0.00 | 0.00 | 0.01 | 65 | 1010.2 |
| 20260505031436 | 61 | 222 | 5.0 | 0.0 | 0.00 | 0.00 | 0.01 | 64 | 1010.2 |
| 20260505025936 | 62 | 227 | 4.0 | 0.0 | 0.00 | 0.00 | 0.01 | 62 | 1010.0 |
| 20260505024436 | 62 | 230 | 3.0 | 0.0 | 0.00 | 0.00 | 0.01 | 62 | 1010.0 |
| 20260505022936 | 62 | 215 | 6.0 | 0.0 | 0.00 | 0.00 | 0.01 | 61 | 1010.0 |
| 20260505021436 | 63 | 184 | 4.0 | 0.0 | 0.00 | 0.00 | 0.01 | 60 | 1010.0 |
| 20260505015936 | 63 | 216 | 3.0 | 0.0 | 0.00 | 0.00 | 0.01 | 59 | 1009.4 |
| 20260505014436 | 64 | 192 | 7.0 | 0.0 | 0.00 | 0.00 | 0.01 | 58 | 1009.4 |
| 20260505012936 | 65 | 208 | 7.0 | 0.0 | 0.00 | 0.00 | 0.01 | 58 | 1009.4 |
| 20260505011436 | 65 | 193 | 8.0 | 0.0 | 0.00 | 0.00 | 0.01 | 57 | 1009.4 |
| 20260505005953 | 66 | 220 | 8.0 | 0.0 | 0.00 | 0.00 | 0.01 | 55 | 1008.9 |
| 20260505004436 | 66 | 199 | 9.0 | 0.0 | 0.00 | 0.00 | 0.01 | 55 | 1008.9 |
| 20260505002953 | 67 | 188 | 4.0 | 0.0 | 0.00 | 0.00 | 0.01 | 54 | 1008.9 |
| 20260505001436 | 68 | 220 | 9.0 | 0.0 | 0.00 | 0.00 | 0.00 | 54 | 1008.9 |
| 20260504235936 | 69 | 216 | 10.0 | 0.0 | 0.00 | 0.00 | 0.00 | 50 | 1008.2 |
| 20260504234436 | 70 | 214 | 9.0 | 0.0 | 0.00 | 0.00 | 0.00 | 49 | 1008.2 |
| 20260504232937 | 71 | 197 | 14.0 | 0.0 | 0.00 | 0.00 | 0.00 | 47 | 1008.2 |
| 20260504231453 | 72 | 218 | 20.0 | 0.0 | 0.00 | 0.00 | 0.00 | 44 | 1008.2 |
| 20260504225937 | 74 | 199 | 21.0 | 0.0 | 0.00 | 0.00 | 0.00 | 41 | 1008.0 |
| 20260504224436 | 74 | 215 | 10.0 | 0.0 | 0.00 | 0.00 | 0.00 | 39 | 1008.0 |
| 20260504222936 | 76 | 240 | 14.0 | 0.0 | 0.00 | 0.00 | 0.00 | 35 | 1008.0 |
| 20260504221510 | 77 | 199 | 7.0 | 0.0 | 0.00 | 0.00 | 0.00 | 31 | 1008.0 |
| 20260504215936 | 76 | 218 | 8.0 | 0.0 | 0.00 | 0.00 | 0.00 | 32 | 1008.1 |
| 20260504214436 | 77 | 233 | 9.0 | 0.0 | 0.00 | 0.00 | 0.00 | 31 | 1008.1 |
| 20260504212953 | 77 | 228 | 14.0 | 0.0 | 0.00 | 0.00 | 0.00 | 30 | 1008.1 |
| 20260504211436 | 77 | 229 | 8.0 | 0.0 | 0.00 | 0.00 | 0.00 | 30 | 1008.1 |
| 20260504205936 | 78 | 245 | 18.0 | 0.0 | 0.00 | 0.00 | 0.00 | 29 | 1008.7 |
| 20260504204436 | 77 | 218 | 3.0 | 0.0 | 0.00 | 0.00 | 0.00 | 28 | 1008.7 |
| 20260504202936 | 77 | 241 | 12.0 | 0.0 | 0.00 | 0.00 | 0.00 | 27 | 1008.7 |
| 20260504201436 | 77 | 181 | 4.0 | 0.0 | 0.00 | 0.00 | 0.00 | 27 | 1008.7 |
| 20260504195936 | 77 | 198 | 10.0 | 0.0 | 0.00 | 0.00 | 0.00 | 28 | 1009.4 |
| 20260504194436 | 78 | 231 | 4.0 | 0.0 | 0.00 | 0.00 | 0.00 | 27 | 1009.4 |
| 20260504192936 | 77 | 322 | 3.0 | 0.0 | 0.00 | 0.00 | 0.00 | 28 | 1009.4 |
| 20260504191436 | 76 | 187 | 0.0 | 0.0 | 0.00 | 0.00 | 0.00 | 29 | 1009.4 |
| 20260504185936 | 77 | 230 | 6.0 | 0.0 | 0.00 | 0.00 | 0.00 | 30 | 1010.1 |
| 20260504184436 | 76 | 13 | 3.0 | 0.0 | 0.00 | 0.00 | 0.00 | 29 | 1010.1 |
| 20260504182936 | 77 | 261 | 4.0 | 0.0 | 0.00 | 0.00 | 0.00 | 29 | 1010.1 |
| 20260504181436 | 75 | 266 | 11.0 | 0.0 | 0.00 | 0.00 | 0.00 | 29 | 1010.1 |
| 20260504175953 | 75 | 219 | 5.0 | 0.0 | 0.00 | 0.00 | 0.00 | 33 | 1010.4 |
| 20260504174436 | 75 | 222 | 14.0 | 0.0 | 0.00 | 0.00 | 0.00 | 32 | 1010.4 |